Juliana Airport, Sint Maarten

6:56 PM AST on September 20, 2017 (GMT -0400)
Princess Juliana International

Weather History for TNCM - March, 2014

Change the Weather History Date:

Friday, March 21, 2014

  Actual Average Record
Temperature  
Mean Temperature 80 °F -  
Max Temperature 82 °F 83 °F 86 °F (2003)
Min Temperature 77 °F 73 °F 69 °F (2003)
Cooling Degree Days 14    
Growing Degree Days 30 (Base 50)    
Moisture  
Dew Point 71 °F    
Average Humidity 73    
Maximum Humidity 78    
Minimum Humidity 62    
Precipitation  
Precipitation 0.00 in 0.08 in - ()
Sea Level Pressure  
Sea Level Pressure 30.03 in    
Wind  
Wind Speed 8 mph ()    
Max Wind Speed 14 mph    
Max Gust Speed -    
Visibility 7.4 miles    
Events Rain    
Averages and records for this station are not official NWS values.
T = Trace of Precipitation, MM = Missing Value Source: Averaged Metar Reports

Daily Weather History Graph

Daily Weather History Graph

Search for Another Location

Airport or City:

Trip Planner

Search our weather history database for the weather conditions in past years. The results will help you decide how hot, cold, wet, or windy it might be!

Date:

Astronomy

Mar. 21, 2014 Rise Set
Actual Time 6:15 AM AST 6:23 PM AST
Civil Twilight 5:54 AM AST 6:45 PM AST
Nautical Twilight 5:28 AM AST 7:10 PM AST
Astronomical Twilight 5:03 AM AST 7:36 PM AST
Moon 10:59 PM AST (3/21) 9:41 AM AST (3/21)
Length of Visible Light 12h 51m
Length of Day
12h 07m
Waning Gibbous, 75% of the Moon is Illuminated
Mar 21
Waning Gibbous
Mar 23
Last Quarter
Mar 30
New
Apr 7
First Quarter
Apr 15
Full

Hourly Weather History & Observations

Time (AST) Temp. Heat Index Dew Point Humidity Pressure Visibility Wind Dir Wind Speed Gust Speed Precip Events Conditions
12:00 AM 77.0 °F - 68.0 °F 74% 30.04 in 6.2 mi East 9.2 mph - N/A   Partly Cloudy
1:00 AM 77.0 °F - 69.8 °F 78% 30.01 in 6.2 mi East 9.2 mph - N/A   Scattered Clouds
2:00 AM 78 °F - 69 °F 67% 30.01 in 25 mi SE 8.1 mph - -   Scattered Clouds
2:00 AM 77.0 °F - 69.8 °F 78% 30.01 in 6.2 mi ESE 9.2 mph - N/A   Partly Cloudy
3:00 AM 77.0 °F - 68.0 °F 74% 29.98 in 6.2 mi ESE 8.1 mph - N/A   Partly Cloudy
4:00 AM 77.0 °F - 69.8 °F 78% 29.98 in 6.2 mi ESE 10.4 mph - N/A   Partly Cloudy
5:00 AM 77 °F - 69 °F 71% 29.99 in 25 mi ESE 9.2 mph - -   Scattered Clouds
5:00 AM 77.0 °F - 69.8 °F 78% 29.98 in 6.2 mi ESE 9.2 mph - N/A   Partly Cloudy
6:00 AM 77.0 °F - 69.8 °F 78% 29.98 in 6.2 mi ESE 8.1 mph - N/A   Partly Cloudy
7:00 AM 77.0 °F - 69.8 °F 78% 30.01 in 6.2 mi ESE 8.1 mph - N/A   Partly Cloudy
8:00 AM 79 °F - 71 °F 69% 30.04 in 16 mi ESE 8.1 mph - -   Partly Cloudy
8:00 AM 78.8 °F - 69.8 °F 74% 30.04 in 6.2 mi ESE 8.1 mph - N/A   Scattered Clouds
9:00 AM 80.6 °F 84.6 °F 71.6 °F 74% 30.04 in 6.2 mi ESE 8.1 mph - N/A   Scattered Clouds
10:00 AM 80.6 °F 84.6 °F 71.6 °F 74% 30.06 in 6.2 mi SE 13.8 mph - N/A   Scattered Clouds
11:00 AM 82 °F - 71 °F 62% 30.08 in 22 mi ESE 10.4 mph - -   Partly Cloudy
11:00 AM 82.4 °F 87.2 °F 71.6 °F 70% 30.06 in 6.2 mi ESE 10.4 mph - N/A   Scattered Clouds
12:00 PM 82.4 °F 87.2 °F 71.6 °F 70% 30.06 in 6.2 mi SE 11.5 mph - N/A   Scattered Clouds
1:00 PM 82.4 °F 87.2 °F 71.6 °F 70% 30.04 in 6.2 mi SE 10.4 mph - N/A   Scattered Clouds
2:00 PM 82 °F - 72 °F 63% 30.03 in 22 mi SE 9.2 mph - - Rain Light Drizzle
2:00 PM 82.4 °F 87.2 °F 71.6 °F 70% 30.01 in 6.2 mi SE 9.2 mph - N/A   Scattered Clouds
3:00 PM 82.4 °F 88.2 °F 73.4 °F 74% 30.01 in 6.2 mi SSE 8.1 mph - N/A   Scattered Clouds
4:00 PM 82.4 °F 87.2 °F 71.6 °F 70% 30.01 in 6.2 mi SE 9.2 mph - N/A   Scattered Clouds
5:00 PM 81 °F - 72 °F 68% 30.03 in 22 mi SE 9.2 mph - -   Partly Cloudy
5:00 PM 80.6 °F 84.6 °F 71.6 °F 74% 30.01 in 6.2 mi SE 9.2 mph - N/A   Scattered Clouds
6:00 PM 80.6 °F 84.6 °F 71.6 °F 74% 30.04 in 6.2 mi SE 9.2 mph - N/A   Scattered Clouds
7:00 PM 78.8 °F - 71.6 °F 78% 30.04 in 6.2 mi SE 10.4 mph - N/A   Partly Cloudy
8:00 PM 79 °F - 71 °F 72% 30.06 in 16 mi SE 8.1 mph - -   Scattered Clouds
8:00 PM 78.8 °F - 71.6 °F 78% 30.04 in 6.2 mi SE 8.1 mph - N/A   Partly Cloudy
9:00 PM 78.8 °F - 71.6 °F 78% 30.06 in 6.2 mi SE 9.2 mph - N/A   Partly Cloudy
10:00 PM 78.8 °F - 71.6 °F 78% 30.06 in 6.2 mi ESE 8.1 mph - N/A   Scattered Clouds
11:00 PM 79 °F - 71 °F 70% 30.09 in 19 mi ESE 8.1 mph - -   Scattered Clouds
11:00 PM 78.8 °F - 71.6 °F 78% 30.06 in 6.2 mi ESE 8.1 mph - N/A   Partly Cloudy